Location: Isle of Man Observatory
(54.1776°N, 4.6264°W)
Time: 14:53:39
(UTC+02:00)

ARIANE 6 FM1 Upper Stage - Pass Details

Date: 16 April 2026
Orbit: 526 x 601 km, 62.0° (Epoch: 19 May)

Event Time Altitude Azimuth Distance (km) Brightness Sun altitude
Rises 01:12:27 0° 297° (WNW) 2,694 6.8 -24.3°
Reaches altitude 10° 01:14:54 10° 309° (NW) 1,793 6.0 -24.4°
Maximum altitude 01:18:25 29° 10° (N) 1,007 4.5 -24.5°
Enters shadow 01:21:16 14° 66° (ENE) 1,557 5.0 -24.6°
